CYGFM08

Last updated on Thu Nov 21 2024 00:02:20 GMT+0000 (Coordinated Universal Time)

1 41888U 16078E 24325.52766667 .00019350 00000+0 57723-3 0 9996 2 41888 34.9506 18.2950 0013506 194.2963 165.7373 15.33652574440159
UTC large
Height (km)
Speed (km/s)
/
Latitude / Longitude
Inclination (degrees)
Orbital Period (minutes)
Azimuth
Elevation
Range (km)
Doppler Factor

Next 0 passes for location: London (51.5072 / 0.1276)

Sorry there are no passes over London.